Regional Weather Roundup
Issued by NWS Tiyan, Guam

Home | Current Version | Previous Version | Text Only | Print | Product List | Glossary On
Versions: 1 2 3 4 5 6 7 8 9 10 11 12 13 14 15 16 17 18 19 20 21 22 23 24 25 26 27 28 29 30 31 32 33 34 35 36 37 38 39 40 41 42 43 44 45 46 47
000
ASGM40 PGUM 270810
RWRGUM
WEATHER ROUNDUP FOR THE MARIANAS
NATIONAL WEATHER SERVICE TIYAN GU
600 PM CHST TUE JAN 27 2015

GUZ001>004-270900-
MARIANA ISLANDS-

CITY           SKY/WX    TMP DP  RH WIND       PRES   REMARKS
GUAM AIRPORT   CLEAR     82  73  74 E10       29.83R
ANDERSEN AFB   PTCLDY    79  73  83 E10       29.83R
ROTA AIRPORT   NOT AVBL
TINIAN AP      PTCLDY    81  73  78 E7        29.81
SAIPAN AP      PTCLDY    82  73  74 E3        29.82S

$$



USA.gov is the U.S. government's official web portal to all federal, state and local government web resources and services.